Time,TemperatureF,DewpointF,PressureIn,WindDirection,WindDirectionDegrees,WindSpeedMPH,WindSpeedGustMPH,Humidity,HourlyPrecipIn,Conditions,Clouds,dailyrainin,SoftwareType,DateUTC
2013-06-26 00:01:00,75.7,53.5,29.94,South,180,0.0,0.0,46,0.00,CLR,,0.00,WeatherDisplay:10.37,2013-06-26 05:01:00,
2013-06-26 00:06:00,75.7,53.5,29.94,South,180,0.0,0.0,46,0.00,CLR,,0.00,WeatherDisplay:10.37,2013-06-26 05:06:00,
2013-06-26 00:11:00,75.6,53.3,29.97,SE,135,0.0,0.0,46,0.00,CLR,,0.00,WeatherDisplay:10.37,2013-06-26 05:11:00,
2013-06-26 00:16:00,75.4,53.2,29.97,SE,135,0.0,0.0,46,0.00,CLR,,0.00,WeatherDisplay:10.37,2013-06-26 05:16:00,
2013-06-26 00:21:00,75.6,53.3,29.97,SSE,158,0.0,0.0,46,0.00,CLR,,0.00,WeatherDisplay:10.37,2013-06-26 05:21:00,
2013-06-26 00:26:00,75.6,53.9,29.97,SE,135,0.0,0.0,47,0.00,CLR,,0.00,WeatherDisplay:10.37,2013-06-26 05:26:00,
2013-06-26 00:31:00,75.6,53.9,29.97,South,180,0.0,0.0,47,0.00,CLR,,0.00,WeatherDisplay:10.37,2013-06-26 05:31:00,
2013-06-26 00:36:00,75.4,53.7,29.97,South,180,2.3,2.3,47,0.00,CLR,,0.00,WeatherDisplay:10.37,2013-06-26 05:36:00,
2013-06-26 00:41:00,75.4,53.7,29.97,SSE,158,0.0,0.0,47,0.00,CLR,,0.00,WeatherDisplay:10.37,2013-06-26 05:41:00,
2013-06-26 00:46:00,75.4,54.3,29.97,SSE,158,0.0,0.0,48,0.00,CLR,,0.00,WeatherDisplay:10.37,2013-06-26 05:46:00,
2013-06-26 00:51:00,75.4,54.3,29.97,SSE,158,0.0,0.0,48,0.00,CLR,,0.00,WeatherDisplay:10.37,2013-06-26 05:51:00,
2013-06-26 00:56:00,75.4,54.3,29.94,SSE,158,0.0,0.0,48,0.00,CLR,,0.00,WeatherDisplay:10.37,2013-06-26 05:56:00,
2013-06-26 01:01:00,75.2,54.7,29.94,South,180,0.0,0.0,49,0.00,CLR,,0.00,WeatherDisplay:10.37,2013-06-26 06:01:00,
2013-06-26 01:06:00,75.2,54.7,29.94,SSE,158,0.0,0.0,49,0.00,CLR,,0.00,WeatherDisplay:10.37,2013-06-26 06:06:00,
2013-06-26 01:11:00,75.0,54.6,29.94,SSE,158,0.0,0.0,49,0.00,CLR,,0.00,WeatherDisplay:10.37,2013-06-26 06:11:00,
2013-06-26 01:16:00,74.8,54.4,29.94,South,180,0.0,0.0,49,0.00,CLR,,0.00,WeatherDisplay:10.37,2013-06-26 06:16:00,
2013-06-26 01:21:00,74.7,54.2,29.94,South,180,0.0,0.0,49,0.00,CLR,,0.00,WeatherDisplay:10.37,2013-06-26 06:21:00,
2013-06-26 01:26:00,74.7,54.8,29.97,South,180,0.0,0.0,50,0.00,CLR,,0.00,WeatherDisplay:10.37,2013-06-26 06:26:00,
2013-06-26 01:31:00,74.5,54.6,29.97,South,180,0.0,0.0,50,0.00,CLR,,0.00,WeatherDisplay:10.37,2013-06-26 06:31:00,
2013-06-26 01:36:00,74.3,55.0,29.97,South,180,0.0,0.0,51,0.00,CLR,,0.00,WeatherDisplay:10.37,2013-06-26 06:36:00,
2013-06-26 01:41:00,74.1,54.8,29.94,South,180,0.0,0.0,51,0.00,CLR,,0.00,WeatherDisplay:10.37,2013-06-26 06:41:00,
2013-06-26 01:46:00,74.1,55.4,29.94,South,180,0.0,0.0,52,0.00,CLR,,0.00,WeatherDisplay:10.37,2013-06-26 06:46:00,
2013-06-26 01:51:00,74.1,55.4,29.94,South,180,0.0,0.0,52,0.00,CLR,,0.00,WeatherDisplay:10.37,2013-06-26 06:51:00,
2013-06-26 01:56:00,74.1,55.4,29.94,South,180,0.0,0.0,52,0.00,CLR,,0.00,WeatherDisplay:10.37,2013-06-26 06:56:00,
2013-06-26 02:01:00,74.1,55.4,29.94,South,180,0.0,0.0,52,0.00,CLR,,0.00,WeatherDisplay:10.37,2013-06-26 07:01:00,
2013-06-26 02:06:00,73.9,55.7,29.94,South,180,0.0,0.0,53,0.00,CLR,,0.00,WeatherDisplay:10.37,2013-06-26 07:06:00,
2013-06-26 02:11:00,73.8,55.6,29.94,South,180,0.0,0.0,53,0.00,CLR,,0.00,WeatherDisplay:10.37,2013-06-26 07:11:00,
2013-06-26 02:16:00,73.4,55.2,29.94,South,180,0.0,0.0,53,0.00,CLR,,0.00,WeatherDisplay:10.37,2013-06-26 07:16:00,
2013-06-26 02:21:00,73.4,55.7,29.94,South,180,0.0,0.0,54,0.00,CLR,,0.00,WeatherDisplay:10.37,2013-06-26 07:21:00,
2013-06-26 02:26:00,73.2,55.6,29.94,South,180,0.0,0.0,54,0.00,CLR,,0.00,WeatherDisplay:10.37,2013-06-26 07:26:00,
2013-06-26 02:31:00,73.2,56.1,29.94,South,180,0.0,0.0,55,0.00,CLR,,0.00,WeatherDisplay:10.37,2013-06-26 07:31:00,
2013-06-26 02:36:00,73.2,56.6,29.94,South,180,0.0,0.0,56,0.00,CLR,,0.00,WeatherDisplay:10.37,2013-06-26 07:36:00,
2013-06-26 02:41:00,73.2,56.6,29.97,South,180,0.0,0.0,56,0.00,CLR,,0.00,WeatherDisplay:10.37,2013-06-26 07:41:00,
2013-06-26 02:46:00,73.4,57.2,29.97,South,180,0.0,0.0,57,0.00,CLR,,0.00,WeatherDisplay:10.37,2013-06-26 07:46:00,
2013-06-26 02:51:00,73.6,57.9,29.97,South,180,0.0,0.0,58,0.00,CLR,,0.00,WeatherDisplay:10.37,2013-06-26 07:51:00,
2013-06-26 02:56:00,73.6,57.9,29.97,South,180,0.0,0.0,58,0.00,CLR,,0.00,WeatherDisplay:10.37,2013-06-26 07:56:00,
2013-06-26 03:01:00,73.6,58.4,29.97,South,180,0.0,0.0,59,0.00,CLR,,0.00,WeatherDisplay:10.37,2013-06-26 08:01:00,
2013-06-26 03:02:00,73.6,58.4,29.97,South,180,0.0,0.0,59,0.00,CLR,,0.00,WeatherDisplay:10.37,2013-06-26 08:02:00,
2013-06-26 03:07:00,73.6,58.4,29.97,South,180,0.0,0.0,59,0.00,CLR,,0.00,WeatherDisplay:10.37,2013-06-26 08:07:00,
2013-06-26 03:12:00,73.6,57.9,29.94,South,180,0.0,0.0,58,0.00,CLR,,0.00,WeatherDisplay:10.37,2013-06-26 08:12:00,
2013-06-26 03:17:00,73.6,57.9,29.94,SSE,158,0.0,0.0,58,0.00,CLR,,0.00,WeatherDisplay:10.37,2013-06-26 08:17:00,
2013-06-26 03:22:00,73.8,58.5,29.94,SSE,158,0.0,0.0,59,0.00,CLR,,0.00,WeatherDisplay:10.37,2013-06-26 08:22:00,
2013-06-26 03:27:00,73.8,59.0,29.97,SSE,158,0.0,0.0,60,0.00,CLR,,0.00,WeatherDisplay:10.37,2013-06-26 08:27:00,
2013-06-26 03:32:00,73.9,59.2,29.97,SSE,158,0.0,0.0,60,0.00,CLR,,0.00,WeatherDisplay:10.37,2013-06-26 08:32:00,
2013-06-26 03:37:00,73.9,59.6,29.97,SSE,158,0.0,0.0,61,0.00,CLR,,0.00,WeatherDisplay:10.37,2013-06-26 08:37:00,
2013-06-26 03:42:00,73.9,59.6,29.94,SSE,158,0.0,0.0,61,0.00,CLR,,0.00,WeatherDisplay:10.37,2013-06-26 08:42:00,
2013-06-26 03:47:00,73.9,59.6,29.94,SSE,158,0.0,0.0,61,0.00,CLR,,0.00,WeatherDisplay:10.37,2013-06-26 08:47:00,
2013-06-26 03:52:00,74.1,60.3,29.94,SSE,158,0.0,0.0,62,0.00,CLR,,0.00,WeatherDisplay:10.37,2013-06-26 08:52:00,
2013-06-26 03:57:00,74.1,60.3,29.94,SE,135,0.0,0.0,62,0.00,CLR,,0.00,WeatherDisplay:10.37,2013-06-26 08:57:00,
2013-06-26 04:02:00,74.1,60.3,29.94,SSE,158,0.0,0.0,62,0.00,CLR,,0.00,WeatherDisplay:10.37,2013-06-26 09:02:00,
2013-06-26 04:07:00,74.3,60.9,29.94,SSE,158,0.0,0.0,63,0.00,CLR,,0.00,WeatherDisplay:10.37,2013-06-26 09:07:00,
2013-06-26 04:12:00,74.3,60.9,29.94,SSE,158,0.0,0.0,63,0.00,CLR,,0.00,WeatherDisplay:10.37,2013-06-26 09:12:00,
2013-06-26 04:17:00,74.1,60.7,29.94,SSE,158,0.0,0.0,63,0.00,CLR,,0.00,WeatherDisplay:10.37,2013-06-26 09:17:00,
2013-06-26 04:22:00,74.1,60.7,29.94,SE,135,0.0,0.0,63,0.00,CLR,,0.00,WeatherDisplay:10.37,2013-06-26 09:22:00,
2013-06-26 04:27:00,74.1,60.7,29.97,South,180,0.0,0.0,63,0.00,CLR,,0.00,WeatherDisplay:10.37,2013-06-26 09:27:00,
2013-06-26 04:32:00,74.1,61.2,29.97,SSE,158,0.0,0.0,64,0.00,CLR,,0.00,WeatherDisplay:10.37,2013-06-26 09:32:00,
2013-06-26 04:37:00,73.9,61.0,29.97,SE,135,0.0,0.0,64,0.00,CLR,,0.00,WeatherDisplay:10.37,2013-06-26 09:37:00,
2013-06-26 04:42:00,73.9,61.0,29.94,SE,135,0.0,0.0,64,0.00,CLR,,0.00,WeatherDisplay:10.37,2013-06-26 09:42:00,
2013-06-26 04:47:00,73.9,61.4,29.94,SSE,158,0.0,0.0,65,0.00,CLR,,0.00,WeatherDisplay:10.37,2013-06-26 09:47:00,
2013-06-26 04:52:00,73.9,61.4,29.94,South,180,0.0,0.0,65,0.00,CLR,,0.00,WeatherDisplay:10.37,2013-06-26 09:52:00,
2013-06-26 04:57:00,73.9,61.4,29.97,South,180,0.0,0.0,65,0.00,CLR,,0.00,WeatherDisplay:10.37,2013-06-26 09:57:00,
2013-06-26 05:02:00,73.9,61.4,29.97,South,180,0.0,0.0,65,0.00,CLR,,0.00,WeatherDisplay:10.37,2013-06-26 10:02:00,
2013-06-26 05:07:00,73.8,61.3,29.97,SSE,158,0.0,0.0,65,0.00,CLR,,0.00,WeatherDisplay:10.37,2013-06-26 10:07:00,
2013-06-26 05:12:00,73.8,61.3,29.97,SSE,158,0.0,0.0,65,0.00,CLR,,0.00,WeatherDisplay:10.37,2013-06-26 10:12:00,
2013-06-26 05:17:00,73.8,61.3,29.97,SSE,158,0.0,0.0,65,0.00,CLR,,0.00,WeatherDisplay:10.37,2013-06-26 10:17:00,
2013-06-26 05:22:00,73.8,61.3,29.97,SSE,158,0.0,0.0,65,0.00,CLR,,0.00,WeatherDisplay:10.37,2013-06-26 10:22:00,
2013-06-26 05:27:00,73.6,61.1,29.97,SSE,158,0.0,0.0,65,0.00,CLR,,0.00,WeatherDisplay:10.37,2013-06-26 10:27:00,
2013-06-26 05:32:00,73.8,61.7,29.97,SSE,158,0.0,0.0,66,0.00,CLR,,0.00,WeatherDisplay:10.37,2013-06-26 10:32:00,
2013-06-26 05:37:00,73.9,62.3,29.97,SSE,158,0.0,0.0,67,0.00,CLR,,0.00,WeatherDisplay:10.37,2013-06-26 10:37:00,
2013-06-26 05:42:00,73.9,61.9,29.97,SE,135,0.0,0.0,66,0.00,CLR,,0.00,WeatherDisplay:10.37,2013-06-26 10:42:00,
2013-06-26 05:47:00,74.1,62.0,29.97,South,180,0.0,0.0,66,0.00,CLR,,0.00,WeatherDisplay:10.37,2013-06-26 10:47:00,
2013-06-26 05:52:00,74.3,62.2,29.97,South,180,2.3,0.0,66,0.00,CLR,,0.00,WeatherDisplay:10.37,2013-06-26 10:52:00,
2013-06-26 05:57:00,74.3,62.2,29.97,SSE,158,2.3,0.0,66,0.00,CLR,,0.00,WeatherDisplay:10.37,2013-06-26 10:57:00,
2013-06-26 06:02:00,74.5,61.9,29.97,SE,135,3.5,3.5,65,0.00,CLR,,0.00,WeatherDisplay:10.37,2013-06-26 11:02:00,
2013-06-26 06:07:00,74.3,61.3,29.97,SSE,158,0.0,0.0,64,0.00,CLR,,0.00,WeatherDisplay:10.37,2013-06-26 11:07:00,
2013-06-26 06:12:00,74.3,61.3,29.97,SE,135,1.2,0.0,64,0.00,CLR,,0.00,WeatherDisplay:10.37,2013-06-26 11:12:00,
2013-06-26 06:17:00,74.3,61.3,29.97,SSE,158,0.0,0.0,64,0.00,CLR,,0.00,WeatherDisplay:10.37,2013-06-26 11:17:00,
2013-06-26 06:22:00,74.3,60.9,29.97,South,180,0.0,0.0,63,0.00,CLR,,0.00,WeatherDisplay:10.37,2013-06-26 11:22:00,
2013-06-26 06:27:00,74.3,60.9,29.97,SSE,158,2.3,2.6,63,0.00,CLR,,0.00,WeatherDisplay:10.37,2013-06-26 11:27:00,
2013-06-26 06:32:00,74.5,60.6,29.97,SSE,158,0.0,0.0,62,0.00,CLR,,0.00,WeatherDisplay:10.37,2013-06-26 11:32:00,
2013-06-26 06:37:00,74.5,60.6,29.97,South,180,1.2,0.0,62,0.00,CLR,,0.00,WeatherDisplay:10.37,2013-06-26 11:37:00,
2013-06-26 06:42:00,74.5,60.1,30.00,SE,135,0.0,0.0,61,0.00,CLR,,0.00,WeatherDisplay:10.37,2013-06-26 11:42:00,
2013-06-26 06:47:00,74.7,60.3,30.00,South,180,0.0,0.0,61,0.00,CLR,,0.00,WeatherDisplay:10.37,2013-06-26 11:47:00,
2013-06-26 06:52:00,74.8,60.5,30.00,SSE,158,2.3,2.3,61,0.00,CLR,,0.00,WeatherDisplay:10.37,2013-06-26 11:52:00,
2013-06-26 06:57:00,75.0,60.2,30.00,SSE,158,3.5,3.5,60,0.00,CLR,,0.00,WeatherDisplay:10.37,2013-06-26 11:57:00,
2013-06-26 07:02:00,75.0,60.2,30.00,SSE,158,3.5,3.5,60,0.00,CLR,,0.00,WeatherDisplay:10.37,2013-06-26 12:02:00,
2013-06-26 07:07:00,75.2,59.9,30.00,South,180,2.3,2.3,59,0.00,CLR,,0.00,WeatherDisplay:10.37,2013-06-26 12:07:00,
2013-06-26 07:12:00,75.4,59.6,30.03,South,180,0.0,0.0,58,0.00,CLR,,0.00,WeatherDisplay:10.37,2013-06-26 12:12:00,
2013-06-26 07:17:00,75.6,59.7,30.03,SE,135,0.0,0.0,58,0.00,CLR,,0.00,WeatherDisplay:10.37,2013-06-26 12:17:00,
2013-06-26 07:22:00,75.7,59.4,30.03,SE,135,0.0,0.0,57,0.00,CLR,,0.00,WeatherDisplay:10.37,2013-06-26 12:22:00,
2013-06-26 07:27:00,75.9,59.1,30.03,SE,135,1.2,0.0,56,0.00,CLR,,0.00,WeatherDisplay:10.37,2013-06-26 12:27:00,
2013-06-26 07:32:00,76.1,58.8,30.03,SSE,158,1.2,0.0,55,0.00,CLR,,0.00,WeatherDisplay:10.37,2013-06-26 12:32:00,
2013-06-26 07:37:00,76.5,58.6,30.03,SE,135,0.0,0.0,54,0.00,CLR,,0.00,WeatherDisplay:10.37,2013-06-26 12:37:00,
2013-06-26 07:42:00,76.6,58.7,30.03,SE,135,0.0,0.0,54,0.00,CLR,,0.00,WeatherDisplay:10.37,2013-06-26 12:42:00,
2013-06-26 07:47:00,76.6,58.2,30.03,North,0,0.0,0.0,53,0.00,CLR,,0.00,WeatherDisplay:10.37,2013-06-26 12:47:00,
2013-06-26 07:52:00,77.0,58.6,30.03,SSE,158,2.3,0.0,53,0.00,CLR,,0.00,WeatherDisplay:10.37,2013-06-26 12:52:00,
2013-06-26 07:57:00,77.2,58.7,30.03,SSE,158,1.2,0.0,53,0.00,CLR,,0.00,WeatherDisplay:10.37,2013-06-26 12:57:00,
2013-06-26 08:02:00,77.4,58.4,30.03,SE,135,2.3,2.9,52,0.00,CLR,,0.00,WeatherDisplay:10.37,2013-06-26 13:02:00,
2013-06-26 08:07:00,77.7,57.6,30.03,SE,135,2.3,2.3,50,0.00,CLR,,0.00,WeatherDisplay:10.37,2013-06-26 13:07:00,
2013-06-26 08:12:00,78.1,57.4,30.03,ESE,112,2.3,2.3,49,0.00,CLR,,0.00,WeatherDisplay:10.37,2013-06-26 13:12:00,
2013-06-26 08:17:00,78.3,56.4,30.03,SE,135,0.9,1.4,47,0.00,CLR,,0.00,WeatherDisplay:10.37,2013-06-26 13:17:00,
2013-06-26 08:22:00,78.6,56.1,30.03,South,180,0.0,0.0,46,0.00,CLR,,0.00,WeatherDisplay:10.37,2013-06-26 13:22:00,
2013-06-26 08:27:00,78.8,56.3,30.03,SE,135,2.3,2.3,46,0.00,CLR,,0.00,WeatherDisplay:10.37,2013-06-26 13:27:00,
2013-06-26 08:32:00,79.2,56.0,30.03,SE,135,0.0,0.0,45,0.00,CLR,,0.00,WeatherDisplay:10.37,2013-06-26 13:32:00,
2013-06-26 08:37:00,79.2,56.0,30.03,South,180,1.4,1.4,45,0.00,CLR,,0.00,WeatherDisplay:10.37,2013-06-26 13:37:00,
2013-06-26 08:42:00,79.3,55.5,30.03,ESE,112,1.2,0.0,44,0.00,CLR,,0.00,WeatherDisplay:10.37,2013-06-26 13:42:00,
2013-06-26 08:47:00,79.7,55.2,30.03,SE,135,3.5,3.5,43,0.00,CLR,,0.00,WeatherDisplay:10.37,2013-06-26 13:47:00,
2013-06-26 08:52:00,79.9,54.7,30.03,SE,135,0.0,0.9,42,0.00,CLR,,0.00,WeatherDisplay:10.37,2013-06-26 13:52:00,
2013-06-26 08:57:00,80.1,54.2,30.03,NW,315,0.0,0.0,41,0.00,CLR,,0.00,WeatherDisplay:10.37,2013-06-26 13:57:00,
2013-06-26 09:02:00,80.2,54.4,30.03,SSE,158,0.0,0.0,41,0.00,CLR,,0.00,WeatherDisplay:10.37,2013-06-26 14:02:00,
2013-06-26 09:07:00,80.4,53.9,30.03,SE,135,4.6,4.6,40,0.00,CLR,,0.00,WeatherDisplay:10.37,2013-06-26 14:07:00,
2013-06-26 09:12:00,80.8,54.2,30.03,SE,135,3.5,3.5,40,0.00,CLR,,0.00,WeatherDisplay:10.37,2013-06-26 14:12:00,
2013-06-26 09:17:00,81.1,53.8,30.03,NNW,338,2.3,2.3,39,0.00,CLR,,0.00,WeatherDisplay:10.37,2013-06-26 14:17:00,
2013-06-26 09:22:00,81.1,51.7,30.03,SE,135,1.2,1.2,36,0.00,CLR,,0.00,WeatherDisplay:10.37,2013-06-26 14:22:00,
2013-06-26 09:27:00,81.3,52.6,30.00,ESE,112,2.3,0.0,37,0.00,CLR,,0.00,WeatherDisplay:10.37,2013-06-26 14:27:00,
2013-06-26 09:32:00,81.5,52.0,30.00,SE,135,2.3,2.4,36,0.00,CLR,,0.00,WeatherDisplay:10.37,2013-06-26 14:32:00,
2013-06-26 09:37:00,82.0,50.9,30.00,South,180,3.5,3.5,34,0.00,CLR,,0.00,WeatherDisplay:10.37,2013-06-26 14:37:00,
2013-06-26 09:42:00,82.2,48.6,30.03,South,180,6.9,6.9,31,0.00,CLR,,0.00,WeatherDisplay:10.37,2013-06-26 14:42:00,
2013-06-26 09:47:00,82.6,48.9,30.03,South,180,5.8,5.8,31,0.00,CLR,,0.00,WeatherDisplay:10.37,2013-06-26 14:47:00,
2013-06-26 09:52:00,83.1,49.3,30.03,South,180,3.5,0.0,31,0.00,CLR,,0.00,WeatherDisplay:10.37,2013-06-26 14:52:00,
2013-06-26 09:57:00,83.3,48.6,30.03,SSE,158,4.6,4.6,30,0.00,CLR,,0.00,WeatherDisplay:10.37,2013-06-26 14:57:00,
2013-06-26 10:02:00,83.5,47.9,30.03,SSE,158,3.5,3.6,29,0.00,CLR,,0.00,WeatherDisplay:10.37,2013-06-26 15:02:00,
2013-06-26 10:08:00,83.7,48.0,30.03,SE,135,8.1,8.1,29,0.00,CLR,,0.00,WeatherDisplay:10.37,2013-06-26 15:08:00,
2013-06-26 10:13:00,84.2,48.5,30.03,SE,135,1.2,0.0,29,0.00,CLR,,0.00,WeatherDisplay:10.37,2013-06-26 15:13:00,
2013-06-26 10:18:00,84.7,49.0,30.03,South,180,3.5,3.5,29,0.00,CLR,,0.00,WeatherDisplay:10.37,2013-06-26 15:18:00,
2013-06-26 10:23:00,84.7,48.0,30.03,SSE,158,8.1,8.1,28,0.00,CLR,,0.00,WeatherDisplay:10.37,2013-06-26 15:23:00,
2013-06-26 10:28:00,84.7,47.1,30.03,SE,135,4.9,4.9,27,0.00,CLR,,0.00,WeatherDisplay:10.37,2013-06-26 15:28:00,
2013-06-26 10:33:00,85.1,45.3,30.03,SE,135,4.6,4.6,25,0.00,CLR,,0.00,WeatherDisplay:10.37,2013-06-26 15:33:00,
2013-06-26 10:38:00,85.1,44.2,30.03,South,180,2.3,3.1,24,0.00,CLR,,0.00,WeatherDisplay:10.37,2013-06-26 15:38:00,
2013-06-26 10:43:00,85.3,44.4,30.03,SSW,202,5.8,5.8,24,0.00,CLR,,0.00,WeatherDisplay:10.37,2013-06-26 15:43:00,
2013-06-26 10:48:00,85.5,44.5,30.03,South,180,4.6,4.6,24,0.00,CLR,,0.00,WeatherDisplay:10.37,2013-06-26 15:48:00,
2013-06-26 10:53:00,85.8,45.9,30.03,WNW,292,1.2,1.2,25,0.00,CLR,,0.00,WeatherDisplay:10.37,2013-06-26 15:53:00,
2013-06-26 10:58:00,85.8,44.8,30.03,ENE,68,1.2,0.0,24,0.00,CLR,,0.00,WeatherDisplay:10.37,2013-06-26 15:58:00,
2013-06-26 11:03:00,86.0,43.9,30.03,North,0,2.3,2.3,23,0.00,CLR,,0.00,WeatherDisplay:10.37,2013-06-26 16:03:00,
2013-06-26 11:08:00,86.2,42.9,30.03,SE,135,3.5,3.5,22,0.00,CLR,,0.00,WeatherDisplay:10.37,2013-06-26 16:08:00,
2013-06-26 11:13:00,86.9,42.3,30.00,SSE,158,3.5,3.5,21,0.00,CLR,,0.00,WeatherDisplay:10.37,2013-06-26 16:13:00,
2013-06-26 11:18:00,86.9,41.0,30.00,NE,45,5.8,5.8,20,0.00,CLR,,0.00,WeatherDisplay:10.37,2013-06-26 16:18:00,
2013-06-26 11:23:00,87.6,41.6,30.00,ENE,68,3.5,3.5,20,0.00,CLR,,0.00,WeatherDisplay:10.37,2013-06-26 16:23:00,
2013-06-26 11:28:00,87.4,42.7,30.03,SE,135,2.3,2.3,21,0.00,CLR,,0.00,WeatherDisplay:10.37,2013-06-26 16:28:00,
2013-06-26 11:33:00,87.6,42.9,30.03,West,270,2.3,2.3,21,0.00,CLR,,0.00,WeatherDisplay:10.37,2013-06-26 16:33:00,
2013-06-26 11:38:00,88.0,41.9,30.03,SSE,158,4.6,0.0,20,0.00,CLR,,0.00,WeatherDisplay:10.37,2013-06-26 16:38:00,
2013-06-26 11:43:00,88.3,42.2,30.06,SE,135,6.9,6.9,20,0.00,CLR,,0.00,WeatherDisplay:10.37,2013-06-26 16:43:00,
2013-06-26 11:48:00,88.5,41.0,30.06,South,180,3.5,3.5,19,0.00,CLR,,0.00,WeatherDisplay:10.37,2013-06-26 16:48:00,
2013-06-26 11:53:00,88.3,40.8,30.06,East,90,2.3,0.0,19,0.00,CLR,,0.00,WeatherDisplay:10.37,2013-06-26 16:53:00,
2013-06-26 11:58:00,89.1,41.4,30.03,SSE,158,2.3,2.3,19,0.00,CLR,,0.00,WeatherDisplay:10.37,2013-06-26 16:58:00,
2013-06-26 12:03:00,90.0,42.2,30.03,SE,135,1.2,0.0,19,0.00,CLR,,0.00,WeatherDisplay:10.37,2013-06-26 17:03:00,
2013-06-26 12:08:00,90.0,40.8,30.03,SE,135,3.5,3.6,18,0.00,CLR,,0.00,WeatherDisplay:10.37,2013-06-26 17:08:00,
2013-06-26 12:13:00,89.8,39.1,30.03,SE,135,6.9,6.9,17,0.00,CLR,,0.00,WeatherDisplay:10.37,2013-06-26 17:13:00,
2013-06-26 12:18:00,89.8,39.1,30.03,SE,135,3.5,3.5,17,0.00,CLR,,0.00,WeatherDisplay:10.37,2013-06-26 17:18:00,
2013-06-26 12:23:00,89.4,38.9,30.03,SSE,158,5.8,5.8,17,0.00,CLR,,0.00,WeatherDisplay:10.37,2013-06-26 17:23:00,
2013-06-26 12:28:00,90.1,39.4,30.03,SSW,202,3.5,3.5,17,0.00,CLR,,0.00,WeatherDisplay:10.37,2013-06-26 17:28:00,
2013-06-26 12:33:00,90.3,39.6,30.03,SSE,158,5.8,5.8,17,0.00,CLR,,0.00,WeatherDisplay:10.37,2013-06-26 17:33:00,
2013-06-26 12:38:00,90.5,39.7,30.03,South,180,4.9,4.9,17,0.00,CLR,,0.00,WeatherDisplay:10.37,2013-06-26 17:38:00,
2013-06-26 12:43:00,91.6,40.6,30.03,South,180,4.6,4.6,17,0.00,CLR,,0.00,WeatherDisplay:10.37,2013-06-26 17:43:00,
2013-06-26 12:48:00,91.9,40.9,30.03,East,90,4.6,0.0,17,0.00,CLR,,0.00,WeatherDisplay:10.37,2013-06-26 17:48:00,
2013-06-26 12:53:00,90.7,39.9,30.03,SE,135,1.2,0.0,17,0.00,CLR,,0.00,WeatherDisplay:10.37,2013-06-26 17:53:00,
2013-06-26 12:58:00,90.0,39.3,30.03,SSE,158,5.8,5.9,17,0.00,CLR,,0.00,WeatherDisplay:10.37,2013-06-26 17:58:00,
2013-06-26 13:03:00,91.4,40.5,30.03,South,180,2.3,2.3,17,0.00,CLR,,0.00,WeatherDisplay:10.37,2013-06-26 18:03:00,
2013-06-26 13:08:00,92.5,39.8,30.03,SE,135,3.5,3.5,16,0.00,CLR,,0.00,WeatherDisplay:10.37,2013-06-26 18:08:00,
2013-06-26 13:13:00,92.5,39.8,30.03,SSE,158,3.5,3.5,16,0.00,CLR,,0.00,WeatherDisplay:10.37,2013-06-26 18:13:00,
2013-06-26 13:18:00,92.5,39.8,30.03,SSE,158,3.5,3.5,16,0.00,CLR,,0.00,WeatherDisplay:10.37,2013-06-26 18:18:00,
2013-06-26 14:06:00,92.5,39.8,30.03,SSE,158,3.5,3.5,16,0.00,CLR,,0.00,WeatherDisplay:10.37,2013-06-26 19:06:00,
2013-06-26 14:11:00,92.5,39.8,30.03,SSE,158,3.5,3.5,16,0.00,CLR,,0.00,WeatherDisplay:10.37,2013-06-26 19:11:00,
2013-06-26 16:29:00,92.5,39.8,30.03,SSE,158,3.5,3.5,16,0.00,CLR,,0.00,WeatherDisplay:10.37,2013-06-26 21:29:00,
2013-06-26 22:44:00,92.5,39.8,30.03,SSE,158,3.5,3.5,16,0.00,CLR,,0.00,WeatherDisplay:10.37,2013-06-27 03:44:00,
2013-06-26 22:57:00,92.5,39.8,30.03,SSE,158,3.5,3.5,16,0.00,CLR,,0.00,WeatherDisplay:10.37,2013-06-27 03:57:00,